Location: Gallinara
(44.0333°N, 8.2333°E)
Time: 20:28:13
(UTC+00:00)

Cosmos 2360 Rocket - Visible Passes

Search period start: 28 November 2021 00:00
Search period end: 08 December 2021 00:00
Orbit: 832 x 846 km, 71.0° (Epoch: 28 November)

Date Brightness Start Highest point End Pass type
(mag) Time Alt. Az. Time Alt. Az. Time Alt. Az.
01 Dec 4.6 18:52:22 10° N 18:52:34 11° N 18:52:34 11° N visible
02 Dec 4.4 18:36:38 10° N 18:37:22 13° N 18:37:22 13° N visible
03 Dec 4.1 18:20:55 10° N 18:22:13 16° N 18:22:13 16° N visible
04 Dec 3.9 18:05:12 10° N 18:07:09 18° N 18:07:09 18° N visible
04 Dec 4.9 19:48:46 10° NW 19:48:57 11° NW 19:48:57 11° NW visible
05 Dec 3.6 17:49:29 10° N 17:52:11 21° NNE 17:52:11 21° NNE visible
05 Dec 4.6 19:32:58 10° NNW 19:33:59 15° NW 19:33:59 15° NW visible
06 Dec 3.4 17:33:46 10° N 17:37:21 23° NE 17:37:21 23° NE visible
06 Dec 4.1 19:17:12 10° NNW 19:19:09 22° NW 19:19:09 22° NW visible
07 Dec 3.3 17:18:04 10° N 17:22:32 23° NE 17:22:41 23° NE visible
07 Dec 3.5 19:01:24 10° NNW 19:04:30 33° NW 19:04:30 33° NW visible
